Location: Ch�tillon
(48.8024°N, 2.2935°E)
Time: 22:25:28
(UTC+00:00)

CAS-4A - Pass Details

Date: 04 July 2022
Orbit: 522 x 537 km, 43.0° (Epoch: 07 August)

Event Time Altitude Azimuth Distance (km) Brightness Sun altitude
Exits shadow 01:25:00 26° 168° (SSE) 1,061 ? -15.6°
Maximum altitude 01:25:13 26° 163° (SSE) 1,058 ? -15.5°
Drops below altitude 10° 01:28:34 10° 106° (ESE) 1,759 ? -15.3°
Sets 01:31:03 0° 93° (E) 2,652 ? -15.2°
